• In Norway
  • List of Countries
  • For 7 days
  • Water Temperature
  • Satellite Maps
  • Weather Map
  • Weather Widgets
  • user-avatar
    Login

    Hourly Weather Warnkowo

    Today, 21 October, Sunday

    Time Temperature Precipitation Wind Pressure Humidity
    00:00 +8°C° 0 mm 2 mps 765 mmHg 90%
    01:00 +8°C° 0 mm 2 mps 765 mmHg 91%
    02:00 +8°C° 0 mm 2 mps 765 mmHg 92%
    03:00 +7°C° 0 mm 2 mps 765 mmHg 92%
    04:00 +8°C° 0 mm 1 mps 765 mmHg 92%
    05:00 +8°C° 0 mm 1 mps 765 mmHg 92%
    06:00 +8°C° 0 mm 1 mps 766 mmHg 92%
    07:00 +8°C° 0 mm 1 mps 766 mmHg 93%
    08:00 +8°C° 0 mm 2 mps 766 mmHg 87%
    09:00 +10°C° 0 mm 2 mps 766 mmHg 82%
    10:00 +12°C° 0 mm 2 mps 766 mmHg 76%
    11:00 +13°C° 0 mm 2 mps 766 mmHg 71%
    12:00 +14°C° 0 mm 2 mps 766 mmHg 66%
    13:00 +13°C° 0 mm 3 mps 766 mmHg 62%
    14:00 +13°C° 0 mm 3 mps 766 mmHg 63%
    15:00 +14°C° 0 mm 2 mps 765 mmHg 65%
    16:00 +13°C° 0 mm 2 mps 765 mmHg 66%
    17:00 +12°C° 0 mm 2 mps 765 mmHg 70%
    18:00 +10°C° 0 mm 3 mps 765 mmHg 74%
    19:00 +9°C° 0 mm 3 mps 765 mmHg 77%
    20:00 +9°C° 0 mm 3 mps 765 mmHg 79%
    21:00 +9°C° 0 mm 3 mps 765 mmHg 80%
    22:00 +8°C° 0 mm 3 mps 765 mmHg 81%
    23:00 +8°C° 0 mm 3 mps 765 mmHg 82%

    Tomorrow, 22 October, Monday

    Time Temperature Precipitation Wind Pressure Humidity
    00:00 +7°C° 0 mm 4 mps 764 mmHg 83%
    01:00 +7°C° 0 mm 4 mps 764 mmHg 84%
    02:00 +7°C° 0 mm 4 mps 764 mmHg 85%
    03:00 +7°C° 0 mm 4 mps 764 mmHg 86%
    04:00 +7°C° 0 mm 4 mps 763 mmHg 87%
    05:00 +7°C° 0.1 mm 4 mps 763 mmHg 86%
    06:00 +7°C° 0.1 mm 4 mps 763 mmHg 86%
    07:00 +8°C° 0.1 mm 4 mps 763 mmHg 86%
    08:00 +8°C° 0.4 mm 4 mps 763 mmHg 86%
    09:00 +10°C° 0.4 mm 4 mps 763 mmHg 87%
    10:00 +10°C° 0.4 mm 4 mps 764 mmHg 88%
    11:00 +9°C° 0.6 mm 5 mps 764 mmHg 85%
    12:00 +9°C° 0.6 mm 5 mps 764 mmHg 83%
    13:00 +9°C° 0.6 mm 5 mps 764 mmHg 81%
    14:00 +9°C° 0.1 mm 5 mps 764 mmHg 77%
    15:00 +9°C° 0.1 mm 5 mps 764 mmHg 73%
    16:00 +9°C° 0.1 mm 5 mps 764 mmHg 69%
    17:00 +8°C° 0 mm 5 mps 765 mmHg 71%
    18:00 +8°C° 0 mm 5 mps 765 mmHg 72%
    19:00 +7°C° 0 mm 4 mps 765 mmHg 74%
    20:00 +7°C° 0 mm 4 mps 765 mmHg 75%
    21:00 +7°C° 0 mm 4 mps 766 mmHg 75%
    22:00 +6°C° 0 mm 4 mps 766 mmHg 76%
    23:00 +6°C° 0 mm 4 mps 765 mmHg 77%

    Day after tomorrow, 23 October, Tuesday

    Time Temperature Precipitation Wind Pressure Humidity
    00:00 +6°C° 0 mm 4 mps 765 mmHg 78%
    01:00 +6°C° 0 mm 4 mps 764 mmHg 79%
    02:00 +6°C° 0 mm 5 mps 764 mmHg 80%
    03:00 +5°C° 0 mm 5 mps 763 mmHg 82%
    04:00 +4°C° 0 mm 6 mps 762 mmHg 83%
    05:00 +4°C° 0.4 mm 7 mps 761 mmHg 83%
    06:00 +5°C° 0.4 mm 8 mps 760 mmHg 83%
    07:00 +5°C° 0.4 mm 9 mps 759 mmHg 83%
    08:00 +5°C° 0.6 mm 9 mps 757 mmHg 83%
    09:00 +6°C° 0.6 mm 10 mps 756 mmHg 83%
    10:00 +6°C° 0.6 mm 11 mps 755 mmHg 83%
    11:00 +7°C° 1.4 mm 11 mps 753 mmHg 83%
    12:00 +7°C° 1.4 mm 11 mps 752 mmHg 84%
    13:00 +8°C° 1.4 mm 12 mps 750 mmHg 84%
    14:00 +9°C° 1.9 mm 12 mps 749 mmHg 85%
    15:00 +9°C° 1.9 mm 12 mps 748 mmHg 85%
    16:00 +10°C° 1.9 mm 12 mps 747 mmHg 85%
    17:00 +10°C° 1.3 mm 13 mps 746 mmHg 81%
    18:00 +10°C° 1.3 mm 13 mps 746 mmHg 78%
    19:00 +10°C° 1.3 mm 13 mps 746 mmHg 74%
    20:00 +9°C° 0.2 mm 12 mps 746 mmHg 72%
    21:00 +9°C° 0.2 mm 11 mps 747 mmHg 70%
    22:00 +8°C° 0.2 mm 10 mps 747 mmHg 68%
    23:00 +7°C° 0.1 mm 10 mps 748 mmHg 66%

    24 October, Wednesday

    Time Temperature Precipitation Wind Pressure Humidity
    00:00 +7°C° 0.1 mm 9 mps 748 mmHg 64%
    01:00 +7°C° 0.1 mm 9 mps 749 mmHg 62%
    02:00 +6°C° 0.1 mm 9 mps 749 mmHg 61%
    03:00 +6°C° 0.1 mm 8 mps 750 mmHg 61%
    04:00 +5°C° 0.1 mm 8 mps 750 mmHg 61%
    05:00 +5°C° 0.1 mm 8 mps 751 mmHg 60%
    06:00 +5°C° 0.1 mm 8 mps 751 mmHg 58%
    07:00 +5°C° 0.1 mm 7 mps 752 mmHg 57%
    08:00 +5°C° 0 mm 8 mps 752 mmHg 55%
    09:00 +6°C° 0 mm 9 mps 753 mmHg 52%
    10:00 +7°C° 0 mm 9 mps 753 mmHg 50%
    11:00 +7°C° 0 mm 9 mps 753 mmHg 49%
    12:00 +7°C° 0 mm 9 mps 753 mmHg 48%
    13:00 +8°C° 0 mm 9 mps 754 mmHg 47%
    14:00 +7°C° 0 mm 9 mps 754 mmHg 50%
    15:00 +7°C° 0 mm 8 mps 754 mmHg 52%
    16:00 +8°C° 0 mm 7 mps 754 mmHg 54%
    17:00 +6°C° 0 mm 7 mps 755 mmHg 56%
    18:00 +7°C° 0 mm 6 mps 755 mmHg 58%
    19:00 +5°C° 0 mm 6 mps 755 mmHg 59%
    20:00 +5°C° 0 mm 6 mps 755 mmHg 62%
    21:00 +6°C° 0 mm 5 mps 755 mmHg 64%
    22:00 +6°C° 0 mm 5 mps 755 mmHg 66%
    23:00 +6°C° 0 mm 5 mps 755 mmHg 70%

    25 October, Thursday

    Time Temperature Precipitation Wind Pressure Humidity
    00:00 +6°C° 0 mm 5 mps 755 mmHg 73%
    01:00 +6°C° 0 mm 5 mps 754 mmHg 77%
    02:00 +7°C° 0.4 mm 5 mps 754 mmHg 82%
    03:00 +8°C° 0.4 mm 6 mps 753 mmHg 87%
    04:00 +9°C° 0.4 mm 6 mps 753 mmHg 91%
    05:00 +9°C° 0.4 mm 7 mps 752 mmHg 89%
    06:00 +10°C° 0.4 mm 8 mps 752 mmHg 87%
    07:00 +11°C° 0.4 mm 9 mps 751 mmHg 85%
    08:00 +10°C° 0.2 mm 9 mps 751 mmHg 84%
    09:00 +10°C° 0.2 mm 9 mps 751 mmHg 83%
    10:00 +10°C° 0.2 mm 9 mps 751 mmHg 82%
    11:00 +10°C° 0.1 mm 9 mps 751 mmHg 82%
    12:00 +10°C° 0.1 mm 9 mps 751 mmHg 82%
    13:00 +10°C° 0.1 mm 9 mps 751 mmHg 82%
    14:00 +11°C° 0.2 mm 9 mps 751 mmHg 82%
    15:00 +11°C° 0.2 mm 8 mps 751 mmHg 81%
    16:00 +11°C° 0.2 mm 8 mps 751 mmHg 81%
    17:00 +11°C° 0.2 mm 8 mps 751 mmHg 82%
    18:00 +11°C° 0.2 mm 8 mps 751 mmHg 83%
    19:00 +11°C° 0.2 mm 8 mps 751 mmHg 84%
    20:00 +11°C° 0.2 mm 7 mps 751 mmHg 85%
    21:00 +11°C° 0.2 mm 7 mps 751 mmHg 85%
    22:00 +10°C° 0.2 mm 7 mps 751 mmHg 86%
    23:00 +10°C° 0.2 mm 7 mps 751 mmHg 86%

    26 October, Friday

    Time Temperature Precipitation Wind Pressure Humidity
    00:00 +10°C° 0.2 mm 7 mps 751 mmHg 86%
    01:00 +10°C° 0.2 mm 7 mps 751 mmHg 86%
    02:00 +10°C° 0.2 mm 7 mps 750 mmHg 86%
    03:00 +10°C° 0.2 mm 7 mps 750 mmHg 86%
    04:00 +9°C° 0.2 mm 7 mps 750 mmHg 87%
    05:00 +9°C° 0.1 mm 6 mps 750 mmHg 87%
    06:00 +8°C° 0.1 mm 6 mps 749 mmHg 87%
    07:00 +8°C° 0.1 mm 5 mps 749 mmHg 87%
    08:00 +8°C° 0 mm 6 mps 749 mmHg 85%
    09:00 +9°C° 0 mm 6 mps 749 mmHg 82%
    10:00 +9°C° 0 mm 6 mps 749 mmHg 79%
    11:00 +9°C° 0 mm 6 mps 748 mmHg 78%
    12:00 +9°C° 0 mm 6 mps 748 mmHg 76%
    13:00 +10°C° 0 mm 6 mps 747 mmHg 75%
    14:00 +9°C° 0.1 mm 6 mps 747 mmHg 76%
    15:00 +9°C° 0.1 mm 6 mps 746 mmHg 77%
    16:00 +9°C° 0.1 mm 6 mps 746 mmHg 78%
    17:00 +9°C° 0.1 mm 6 mps 746 mmHg 80%
    18:00 +8°C° 0.1 mm 6 mps 746 mmHg 81%
    19:00 +8°C° 0.1 mm 6 mps 745 mmHg 83%
    20:00 +8°C° 0.1 mm 5 mps 745 mmHg 85%
    21:00 +8°C° 0.1 mm 5 mps 745 mmHg 86%
    22:00 +8°C° 0.1 mm 5 mps 745 mmHg 88%
    23:00 +7°C° 0.1 mm 5 mps 745 mmHg 89%
    Show more